Find Starlink 35889

NORAD ID: 67189 Int'l Des: 2025-303 Owner: SPXS Country: US Constellation: starlink operational
LEOCIRCULAR

实时位置

正在加载3D地球...

关于 Starlink 35889

正在加载描述...

即将过境

Passes for default location (London). Set your location on the main map for personalized predictions.

高度历史

Loading altitude history...

两行轨道根数

1 67189U 25303AC 26104.27704586 .00005949 00000-0 22555-3 0 9995
2 67189 43.0035 110.0876 0001762 255.7428 104.3228 15.27579958 18175
Epoch: Apr 14, 2026 • Age: 26 hours

当前状态

高度 482.2 km
速度 7.63 km/s
星下点 10.82°N, 58.35°W
发射日期 Dec 17, 2025
运行时间 0.3 years
类型 internet

技术详情

分类 Payload
质量 575.00 kg
干质量 530.00 kg
总质量 575.00 kg
长度 0.30 m
直径 4.10 m
跨度 29.00 m
形状 Box + pan
制造商 SPXS
平台类型 Starlink V2MO
阶段状态 In Orbit
所有者/国家 SPXS/US

Most Searched